sat.trackr.live / text

‹ back to catalog

STARLINK-3692

NORAD 51958 · 2022-025C

PAYLOAD ACTIVE UNKNOWN

§ Identity

Operator
Country
US
Launch date
2022-03-09
Launch site
AFETR
Launch vehicle
Mass (kg)
RCS (m²)

Purposes: comms

External: N2YO · Heavens-Above · Gunter

§ Orbital elements

Epoch: 2026-05-24T22:36:52.737120Z

Period
94.01 min
Inclination
53.1589°
Eccentricity
0.0001384
Mean motion
15.31714956 rev/d
Perigee alt
469.7 km
Apogee alt
471.6 km
Semi-major
6,848.8 km
B*
2.4535e-4
RAAN
18.9091°
Arg perigee
81.9580°
Mean anomaly
278.1579°
Rev number
23,285

§ Raw data

STARLINK-36921 51958U 22025C   26144.94227705  .00007259  00000+0  24535-3 0  99962 51958  53.1589  18.9091 0001384  81.9580 278.1579 15.31714956232857

JSON: /api/v1/satellites/51958 · /tle

For live sub-satellite position, see the globe view (requires WebGL).

§ Visibility from observer

Set your observer location to see the next 7 days of passes ≥ 10°. The values pass through the URL so the page stays shareable.

No JS? Fill the form by hand. The geolocation button needs JavaScript.